EDT,Max TemperatureF,Mean TemperatureF,Min TemperatureF,Max Dew PointF,MeanDew PointF,Min DewpointF,Max Humidity, Mean Humidity, Min Humidity, Max Sea Level PressureIn, Mean Sea Level PressureIn, Min Sea Level PressureIn, Max VisibilityMiles, Mean VisibilityMiles, Min VisibilityMiles, Max Wind SpeedMPH, Mean Wind SpeedMPH, Max Gust SpeedMPH,PrecipitationIn, CloudCover, Events, WindDirDegrees
2013-6-1,90,78,66,69,65,61,81,66,50,29.97,29.90,29.82,10,10,10,17,7,23,0.00,3,Thunderstorm,171
2013-6-2,87,78,68,72,67,63,87,71,55,29.82,29.76,29.69,10,10,10,23,8,33,0.12,6,Rain-Thunderstorm,179
2013-6-3,69,61,52,66,51,31,100,66,32,29.95,29.87,29.81,10,10,10,21,9,31,T,4,,301
2013-6-4,71,60,48,45,41,38,71,53,35,30.14,30.01,29.96,10,10,10,23,12,30,0.00,1,,286
2013-6-5,74,60,46,50,43,39,80,57,33,30.22,30.15,30.10,10,10,10,9,2,13,0.00,4,,283
2013-6-6,72,63,54,56,50,45,93,67,41,30.15,30.09,30.04,10,9,6,20,6,26,0.60,8,Rain,148
2013-6-7,58,57,55,56,54,53,93,90,86,30.01,29.94,29.80,10,7,2,15,5,,0.74,8,Rain,75
2013-6-8,70,62,54,58,55,52,93,80,66,30.06,29.88,29.74,10,10,9,15,9,21,0.21,7,Rain,301
2013-6-9,78,65,52,57,54,50,93,68,43,30.18,30.13,30.07,10,10,10,14,5,20,0.00,5,,260
2013-6-10,65,60,54,63,58,53,93,86,78,30.19,30.09,29.88,10,7,3,8,1,170,0.81,7,Rain,99
2013-6-11,70,65,59,66,59,53,97,85,72,29.87,29.69,29.58,10,7,1,24,8,29,0.93,7,Rain,227
2013-6-12,74,65,55,54,52,50,86,65,44,29.85,29.77,29.66,10,10,10,21,9,30,0.00,4,,324
2013-6-13,59,55,51,56,54,51,93,90,86,29.83,29.74,29.68,10,7,2,10,4,14,1.55,7,Fog-Rain,61
2013-6-14,75,65,55,59,55,52,93,71,49,29.88,29.77,29.70,10,10,10,16,5,22,0.08,6,Rain,324
2013-6-15,77,66,54,55,47,39,89,60,31,29.99,29.94,29.88,10,10,10,22,8,29,0.00,1,,289
2013-6-16,71,62,52,62,54,45,87,72,57,29.97,29.85,29.71,10,10,10,16,6,22,T,6,,203
2013-6-17,83,70,57,63,60,55,100,73,45,29.91,29.85,29.79,10,9,2,39,5,52,0.36,4,Rain-Thunderstorm,225
2013-6-18,66,60,53,58,54,50,93,78,63,29.97,29.94,29.91,10,10,10,15,5,21,T,6,Rain,1
2013-6-19,72,61,50,51,46,42,93,66,38,30.18,30.07,29.97,10,10,10,12,6,15,0.00,1,,4
2013-6-20,79,64,48,55,50,45,86,61,36,30.28,30.22,30.19,10,10,10,10,2,14,0.00,2,,140
2013-6-21,84,71,57,61,54,47,93,61,28,30.27,30.23,30.20,10,10,10,8,2,13,0.00,2,,212
2013-6-22,84,75,65,64,61,58,81,64,47,30.22,30.15,30.07,10,10,10,15,8,20,0.00,5,,171
2013-6-23,91,81,70,70,65,60,73,60,47,30.12,30.05,29.97,10,10,10,20,8,30,0.00,5,,182
2013-6-24,92,80,67,70,68,65,93,71,49,30.03,29.98,29.93,10,9,2,24,5,32,0.19,6,Fog-Rain-Thunderstorm,200
2013-6-25,91,78,64,72,68,63,100,75,50,29.97,29.85,29.77,10,8,1,26,4,44,0.58,6,Fog-Rain-Thunderstorm,216
2013-6-26,82,76,70,69,67,64,93,76,58,29.82,29.79,29.76,10,10,10,13,4,15,T,6,Rain,245
2013-6-27,85,75,65,70,67,64,93,72,51,29.81,29.74,29.61,10,9,6,15,3,21,0.17,6,Fog-Rain,140
2013-6-28,81,75,69,70,67,62,97,76,54,29.60,29.48,29.37,10,8,1,25,7,38,1.77,7,Rain-Thunderstorm,122
2013-6-29,83,75,66,68,65,63,97,76,54,29.69,29.56,29.49,10,10,6,16,5,24,T,6,Fog-Thunderstorm,183
2013-6-30,84,75,65,70,66,63,93,78,62,29.91,29.81,29.70,10,10,3,21,4,26,0.57,6,Rain-Thunderstorm,152